Time,TemperatureF,DewpointF,PressureIn,WindDirection,WindDirectionDegrees,WindSpeedMPH,WindSpeedGustMPH,Humidity,HourlyPrecipIn,Conditions,Clouds,dailyrainin,SoftwareType,DateUTC
2013-01-29 00:00:00,17.2,11.5,29.91,East,92,0.0,3.0,78,0.00,,,0.00,VWS V14.01,2013-01-29 07:00:00,
2013-01-29 00:03:00,17.0,11.6,29.91,East,91,0.0,0.0,79,0.00,,,0.00,VWS V14.01,2013-01-29 07:03:00,
2013-01-29 00:08:00,17.0,11.6,29.91,East,101,0.0,1.0,79,0.00,,,0.00,VWS V14.01,2013-01-29 07:08:00,
2013-01-29 00:13:00,17.0,11.9,29.91,East,88,0.0,1.0,80,0.00,,,0.00,VWS V14.01,2013-01-29 07:13:00,
2013-01-29 00:18:00,16.9,11.5,29.92,ENE,78,0.0,1.0,79,0.00,,,0.00,VWS V14.01,2013-01-29 07:18:00,
2013-01-29 00:23:00,16.9,11.5,29.92,NW,314,0.0,1.0,79,0.00,,,0.00,VWS V14.01,2013-01-29 07:23:00,
2013-01-29 00:28:00,16.9,11.2,29.92,East,98,0.0,1.0,78,0.00,,,0.00,VWS V14.01,2013-01-29 07:28:00,
2013-01-29 00:30:00,16.9,11.2,29.92,East,98,0.0,1.0,78,0.00,,,0.00,VWS V14.01,2013-01-29 07:30:00,
2013-01-29 00:33:00,16.9,11.2,29.92,East,98,0.0,0.0,78,0.00,,,0.00,VWS V14.01,2013-01-29 07:33:00,
2013-01-29 00:38:00,16.9,11.2,29.92,ENE,77,0.0,0.0,78,0.00,,,0.00,VWS V14.01,2013-01-29 07:38:00,
2013-01-29 00:43:00,16.9,11.2,29.92,East,96,2.0,3.0,78,0.00,,,0.00,VWS V14.01,2013-01-29 07:43:00,
2013-01-29 00:48:00,16.9,10.9,29.91,East,96,0.0,4.0,77,0.00,,,0.00,VWS V14.01,2013-01-29 07:48:00,
2013-01-29 00:53:00,16.7,10.8,29.91,ESE,122,0.0,4.0,77,0.00,,,0.00,VWS V14.01,2013-01-29 07:53:00,
2013-01-29 00:58:00,16.5,10.3,29.91,ESE,108,0.0,4.0,76,0.00,,,0.00,VWS V14.01,2013-01-29 07:58:00,
2013-01-29 01:00:00,16.5,10.3,29.92,East,101,0.0,4.0,76,0.00,,,0.00,VWS V14.01,2013-01-29 08:00:00,
2013-01-29 01:03:00,16.5,10.6,29.92,East,99,0.0,0.0,77,0.00,,,0.00,VWS V14.01,2013-01-29 08:03:00,
2013-01-29 01:08:00,16.7,11.1,29.92,East,86,0.0,3.0,78,0.00,,,0.00,VWS V14.01,2013-01-29 08:08:00,
2013-01-29 01:13:00,16.7,11.1,29.92,East,82,0.0,3.0,78,0.00,,,0.00,VWS V14.01,2013-01-29 08:13:00,
2013-01-29 01:18:00,16.7,11.1,29.93,East,88,0.0,3.0,78,0.00,,,0.00,VWS V14.01,2013-01-29 08:18:00,
2013-01-29 01:23:00,16.5,10.9,29.93,East,91,0.0,3.0,78,0.00,,,0.00,VWS V14.01,2013-01-29 08:23:00,
2013-01-29 01:28:00,16.5,10.9,29.93,SE,134,0.0,3.0,78,0.00,,,0.00,VWS V14.01,2013-01-29 08:28:00,
2013-01-29 01:30:00,16.5,10.9,29.93,East,98,0.0,3.0,78,0.00,,,0.00,VWS V14.01,2013-01-29 08:30:00,
2013-01-29 01:33:00,16.4,10.8,29.93,East,98,0.0,0.0,78,0.00,,,0.00,VWS V14.01,2013-01-29 08:33:00,
2013-01-29 01:38:00,16.4,10.8,29.93,East,98,0.0,0.0,78,0.00,,,0.00,VWS V14.01,2013-01-29 08:38:00,
2013-01-29 01:43:00,16.2,10.6,29.93,East,94,0.0,2.0,78,0.00,,,0.00,VWS V14.01,2013-01-29 08:43:00,
2013-01-29 01:48:00,16.2,10.6,29.94,East,95,0.0,2.0,78,0.00,,,0.00,VWS V14.01,2013-01-29 08:48:00,
2013-01-29 01:53:00,16.2,10.6,29.94,ESE,123,0.0,2.0,78,0.00,,,0.00,VWS V14.01,2013-01-29 08:53:00,
2013-01-29 01:58:00,16.2,10.8,29.94,East,90,0.0,6.0,79,0.00,,,0.00,VWS V14.01,2013-01-29 08:58:00,
2013-01-29 02:00:00,16.2,10.8,29.94,East,93,0.0,6.0,79,0.00,,,0.00,VWS V14.01,2013-01-29 09:00:00,
2013-01-29 02:03:00,16.2,10.8,29.94,East,89,2.0,3.0,79,0.00,,,0.00,VWS V14.01,2013-01-29 09:03:00,
2013-01-29 02:08:00,16.1,10.8,29.94,ESE,104,0.0,3.0,79,0.00,,,0.00,VWS V14.01,2013-01-29 09:08:00,
2013-01-29 02:13:00,16.1,11.0,29.94,East,84,0.0,3.0,80,0.00,,,0.00,VWS V14.01,2013-01-29 09:13:00,
2013-01-29 02:18:00,15.9,10.8,29.95,East,96,0.0,3.0,80,0.00,,,0.00,VWS V14.01,2013-01-29 09:18:00,
2013-01-29 02:23:00,15.7,10.6,29.95,East,89,3.0,5.0,80,0.00,,,0.00,VWS V14.01,2013-01-29 09:23:00,
2013-01-29 02:28:00,15.6,10.3,29.95,ESE,103,0.0,6.0,79,0.00,,,0.00,VWS V14.01,2013-01-29 09:28:00,
2013-01-29 02:30:00,15.6,10.3,29.96,East,97,0.0,6.0,79,0.00,,,0.00,VWS V14.01,2013-01-29 09:30:00,
2013-01-29 02:33:00,15.6,10.3,29.96,East,88,0.0,0.0,79,0.00,,,0.00,VWS V14.01,2013-01-29 09:33:00,
2013-01-29 02:38:00,15.4,9.8,29.96,East,88,0.0,8.0,78,0.00,,,0.00,VWS V14.01,2013-01-29 09:38:00,
2013-01-29 02:43:00,15.2,9.6,29.96,East,88,0.0,8.0,78,0.00,,,0.00,VWS V14.01,2013-01-29 09:43:00,
2013-01-29 02:48:00,14.9,9.3,29.97,SE,134,0.0,8.0,78,0.00,,,0.00,VWS V14.01,2013-01-29 09:48:00,
2013-01-29 02:53:00,14.4,8.8,29.97,ESE,105,4.0,8.0,78,0.00,,,0.00,VWS V14.01,2013-01-29 09:53:00,
2013-01-29 02:58:00,14.1,8.5,29.97,East,88,0.0,8.0,78,0.00,,,0.00,VWS V14.01,2013-01-29 09:58:00,
2013-01-29 03:00:00,14.0,8.4,29.99,East,91,0.0,8.0,78,0.00,,,0.00,VWS V14.01,2013-01-29 10:00:00,
2013-01-29 03:03:00,13.8,8.2,29.99,East,92,1.0,6.0,78,0.00,,,0.00,VWS V14.01,2013-01-29 10:03:00,
2013-01-29 03:08:00,13.3,7.4,29.99,East,101,4.0,10.0,77,0.00,,,0.00,VWS V14.01,2013-01-29 10:08:00,
2013-01-29 03:13:00,12.8,7.0,29.99,ENE,61,0.0,10.0,77,0.00,,,0.00,VWS V14.01,2013-01-29 10:13:00,
2013-01-29 03:18:00,12.3,6.2,29.99,East,84,0.0,10.0,76,0.00,,,0.00,VWS V14.01,2013-01-29 10:18:00,
2013-01-29 03:23:00,12.1,6.3,29.99,East,97,0.0,10.0,77,0.00,,,0.00,VWS V14.01,2013-01-29 10:23:00,
2013-01-29 03:28:00,11.9,6.1,29.99,East,91,3.0,10.0,77,0.00,,,0.00,VWS V14.01,2013-01-29 10:28:00,
2013-01-29 03:30:00,11.7,5.6,30.00,East,97,0.0,10.0,76,0.00,,,0.00,VWS V14.01,2013-01-29 10:30:00,
2013-01-29 03:33:00,11.4,5.3,30.00,East,93,4.0,4.0,76,0.00,,,0.00,VWS V14.01,2013-01-29 10:33:00,
2013-01-29 03:38:00,10.9,4.8,30.00,ESE,113,0.0,9.0,76,0.00,,,0.00,VWS V14.01,2013-01-29 10:38:00,
2013-01-29 03:43:00,10.4,4.3,30.00,East,88,1.0,9.0,76,0.00,,,0.00,VWS V14.01,2013-01-29 10:43:00,
2013-01-29 03:48:00,9.9,3.9,30.03,North,0,0.0,9.0,76,0.00,,,0.00,VWS V14.01,2013-01-29 10:48:00,
2013-01-29 03:53:00,9.2,3.2,30.03,East,98,0.0,9.0,76,0.00,,,0.00,VWS V14.01,2013-01-29 10:53:00,
2013-01-29 03:58:00,8.4,2.4,30.03,East,93,1.0,9.0,76,0.00,,,0.00,VWS V14.01,2013-01-29 10:58:00,
2013-01-29 04:00:00,8.3,2.3,30.05,East,101,0.0,9.0,76,0.00,,,0.00,VWS V14.01,2013-01-29 11:00:00,
2013-01-29 04:03:00,7.9,1.9,30.05,NE,43,0.0,10.0,76,0.00,,,0.00,VWS V14.01,2013-01-29 11:03:00,
2013-01-29 04:08:00,7.4,1.7,30.05,NE,55,0.0,10.0,77,0.00,,,0.00,VWS V14.01,2013-01-29 11:08:00,
2013-01-29 04:13:00,6.9,0.9,30.05,East,86,0.0,10.0,76,0.00,,,0.00,VWS V14.01,2013-01-29 11:13:00,
2013-01-29 04:18:00,6.5,0.8,30.07,East,83,3.0,10.0,77,0.00,,,0.00,VWS V14.01,2013-01-29 11:18:00,
2013-01-29 04:23:00,6.1,0.4,30.07,East,91,4.0,12.0,77,0.00,,,0.00,VWS V14.01,2013-01-29 11:23:00,
2013-01-29 04:28:00,6.0,0.6,30.07,ENE,69,0.0,12.0,78,0.00,,,0.00,VWS V14.01,2013-01-29 11:28:00,
2013-01-29 04:30:00,6.0,0.6,30.10,East,101,4.0,12.0,78,0.00,,,0.00,VWS V14.01,2013-01-29 11:30:00,
2013-01-29 04:33:00,6.0,0.6,30.10,East,94,2.0,5.0,78,0.00,,,0.00,VWS V14.01,2013-01-29 11:33:00,
2013-01-29 04:38:00,5.8,0.4,30.10,East,79,2.0,10.0,78,0.00,,,0.00,VWS V14.01,2013-01-29 11:38:00,
2013-01-29 04:43:00,5.8,0.7,30.10,ENE,77,2.0,10.0,79,0.00,,,0.00,VWS V14.01,2013-01-29 11:43:00,
2013-01-29 04:48:00,5.6,0.2,30.11,East,81,0.0,10.0,78,0.00,,,0.00,VWS V14.01,2013-01-29 11:48:00,
2013-01-29 04:53:00,5.4,0.0,30.11,West,279,0.0,10.0,78,0.00,,,0.00,VWS V14.01,2013-01-29 11:53:00,
2013-01-29 04:58:00,5.2,-0.2,30.11,ESE,120,3.0,10.0,78,0.00,,,0.00,VWS V14.01,2013-01-29 11:58:00,
2013-01-29 05:00:00,5.0,-0.3,30.12,East,99,3.0,10.0,78,0.00,,,0.00,VWS V14.01,2013-01-29 12:00:00,
2013-01-29 05:03:00,5.0,-0.6,30.12,East,98,3.0,6.0,77,0.00,,,0.00,VWS V14.01,2013-01-29 12:03:00,
2013-01-29 05:08:00,4.8,-0.8,30.12,East,97,3.0,6.0,77,0.00,,,0.00,VWS V14.01,2013-01-29 12:08:00,
2013-01-29 05:13:00,4.7,-0.9,30.12,East,100,0.0,6.0,77,0.00,,,0.00,VWS V14.01,2013-01-29 12:13:00,
2013-01-29 05:18:00,4.5,-1.1,30.14,East,82,0.0,6.0,77,0.00,,,0.00,VWS V14.01,2013-01-29 12:18:00,
2013-01-29 05:23:00,4.3,-1.3,30.14,North,356,0.0,6.0,77,0.00,,,0.00,VWS V14.01,2013-01-29 12:23:00,
2013-01-29 05:28:00,4.3,-1.3,30.14,ESE,103,0.0,6.0,77,0.00,,,0.00,VWS V14.01,2013-01-29 12:28:00,
2013-01-29 05:30:00,4.3,-1.3,30.16,East,85,3.0,6.0,77,0.00,,,0.00,VWS V14.01,2013-01-29 12:30:00,
2013-01-29 05:33:00,4.1,-1.8,30.16,East,95,0.0,4.0,76,0.00,,,0.00,VWS V14.01,2013-01-29 12:33:00,
2013-01-29 05:38:00,4.1,-1.8,30.16,East,91,1.0,4.0,76,0.00,,,0.00,VWS V14.01,2013-01-29 12:38:00,
2013-01-29 05:43:00,3.9,-2.0,30.16,East,92,3.0,4.0,76,0.00,,,0.00,VWS V14.01,2013-01-29 12:43:00,
2013-01-29 05:48:00,3.7,-2.4,30.18,East,86,2.0,5.0,75,0.00,,,0.00,VWS V14.01,2013-01-29 12:48:00,
2013-01-29 05:53:00,3.2,-3.2,30.18,East,96,3.0,9.0,74,0.00,,,0.00,VWS V14.01,2013-01-29 12:53:00,
2013-01-29 05:58:00,2.6,-3.8,30.18,East,88,2.0,9.0,74,0.00,,,0.00,VWS V14.01,2013-01-29 12:58:00,
2013-01-29 06:00:00,2.6,-3.8,30.19,East,100,3.0,9.0,74,0.00,,,0.00,VWS V14.01,2013-01-29 13:00:00,
2013-01-29 06:03:00,2.4,-4.0,30.19,East,90,2.0,3.0,74,0.00,,,0.00,VWS V14.01,2013-01-29 13:03:00,
2013-01-29 06:08:00,2.0,-4.7,30.19,ESE,122,1.0,5.0,73,0.00,,,0.00,VWS V14.01,2013-01-29 13:08:00,
2013-01-29 06:13:00,1.8,-4.6,30.19,East,85,0.0,5.0,74,0.00,,,0.00,VWS V14.01,2013-01-29 13:13:00,
2013-01-29 06:18:00,1.7,-4.9,30.23,ESE,117,0.0,5.0,73,0.00,,,0.00,VWS V14.01,2013-01-29 13:18:00,
2013-01-29 06:23:00,1.5,-5.1,30.23,ESE,106,0.0,6.0,73,0.00,,,0.00,VWS V14.01,2013-01-29 13:23:00,
2013-01-29 06:28:00,1.3,-5.3,30.23,East,94,1.0,6.0,73,0.00,,,0.00,VWS V14.01,2013-01-29 13:28:00,
2013-01-29 06:30:00,1.1,-5.5,30.25,East,87,0.0,6.0,73,0.00,,BKN080,0.00,VWS V14.01,2013-01-29 13:30:00,
2013-01-29 06:33:00,0.9,-5.7,30.25,East,86,0.0,7.0,73,0.00,,,0.00,VWS V14.01,2013-01-29 13:33:00,
2013-01-29 06:38:00,0.7,-5.9,30.25,East,99,4.0,8.0,73,0.00,,,0.00,VWS V14.01,2013-01-29 13:38:00,
2013-01-29 06:43:00,0.3,-6.3,30.25,ESE,110,0.0,9.0,73,0.00,,,0.00,VWS V14.01,2013-01-29 13:43:00,
2013-01-29 06:48:00,0.1,-6.2,30.26,ESE,105,0.0,9.0,74,0.00,,,0.00,VWS V14.01,2013-01-29 13:48:00,
2013-01-29 06:53:00,-0.2,-6.8,30.26,East,93,0.0,9.0,73,0.00,,,0.00,VWS V14.01,2013-01-29 13:53:00,
2013-01-29 06:58:00,-0.6,-7.4,30.26,East,84,3.0,9.0,72,0.00,,,0.00,VWS V14.01,2013-01-29 13:58:00,
2013-01-29 07:00:00,-0.8,-7.6,30.28,ESE,105,0.0,9.0,72,0.00,,BKN080,0.00,VWS V14.01,2013-01-29 14:00:00,
2013-01-29 07:03:00,-1.0,-7.8,30.28,ENE,71,0.0,6.0,72,0.00,,,0.00,VWS V14.01,2013-01-29 14:03:00,
2013-01-29 07:08:00,-1.2,-8.0,30.28,East,91,5.0,6.0,72,0.00,,,0.00,VWS V14.01,2013-01-29 14:08:00,
2013-01-29 07:13:00,-1.6,-8.7,30.28,East,88,2.0,6.0,71,0.00,,,0.00,VWS V14.01,2013-01-29 14:13:00,
2013-01-29 07:18:00,-1.8,-8.9,30.30,ENE,75,0.0,7.0,71,0.00,,,0.00,VWS V14.01,2013-01-29 14:18:00,
2013-01-29 07:23:00,-2.2,-9.3,30.30,East,101,0.0,7.0,71,0.00,,,0.00,VWS V14.01,2013-01-29 14:23:00,
2013-01-29 07:28:00,-2.4,-9.5,30.30,East,90,0.0,7.0,71,0.00,,,0.00,VWS V14.01,2013-01-29 14:28:00,
2013-01-29 07:30:00,-2.4,-9.5,30.32,East,90,3.0,7.0,71,0.00,,,0.00,VWS V14.01,2013-01-29 14:30:00,
2013-01-29 07:32:00,-2.6,-9.7,30.32,East,89,0.0,5.0,71,0.00,,,0.00,VWS V14.01,2013-01-29 14:32:00,
2013-01-29 07:37:00,-2.8,-10.1,30.32,ESE,122,0.0,7.0,70,0.00,,,0.00,VWS V14.01,2013-01-29 14:37:00,
2013-01-29 07:42:00,-2.8,-10.1,30.32,East,96,0.0,7.0,70,0.00,,,0.00,VWS V14.01,2013-01-29 14:42:00,
2013-01-29 07:47:00,-3.1,-10.4,30.33,East,90,0.0,7.0,70,0.00,,,0.00,VWS V14.01,2013-01-29 14:47:00,
2013-01-29 07:52:00,-3.1,-10.1,30.33,East,94,0.0,7.0,71,0.00,,,0.00,VWS V14.01,2013-01-29 14:52:00,
2013-01-29 07:57:00,-3.1,-9.9,30.33,East,94,0.0,7.0,72,0.00,,,0.00,VWS V14.01,2013-01-29 14:57:00,
2013-01-29 08:00:00,-3.1,-10.1,30.34,ESE,104,0.0,7.0,71,0.00,,,0.00,VWS V14.01,2013-01-29 15:00:00,
2013-01-29 08:02:00,-2.8,-9.6,30.34,ESE,120,0.0,0.0,72,0.00,,,0.00,VWS V14.01,2013-01-29 15:02:00,
2013-01-29 08:07:00,-2.8,-9.6,30.34,ESE,104,1.0,5.0,72,0.00,,,0.00,VWS V14.01,2013-01-29 15:07:00,
2013-01-29 08:12:00,-2.8,-9.9,30.34,SE,124,3.0,6.0,71,0.00,,,0.00,VWS V14.01,2013-01-29 15:12:00,
2013-01-29 08:17:00,-2.8,-9.9,30.36,East,89,0.0,6.0,71,0.00,,,0.00,VWS V14.01,2013-01-29 15:17:00,
2013-01-29 08:22:00,-2.8,-9.9,30.36,East,86,0.0,6.0,71,0.00,,,0.00,VWS V14.01,2013-01-29 15:22:00,
2013-01-29 08:27:00,-2.6,-9.7,30.36,East,89,0.0,6.0,71,0.00,,,0.00,VWS V14.01,2013-01-29 15:27:00,
2013-01-29 08:30:00,-2.6,-9.7,30.37,ESE,103,1.0,6.0,71,0.00,,BKN080,0.00,VWS V14.01,2013-01-29 15:30:00,
2013-01-29 08:32:00,-2.6,-9.7,30.37,ESE,110,1.0,2.0,71,0.00,,,0.00,VWS V14.01,2013-01-29 15:32:00,
2013-01-29 08:37:00,-2.6,-9.9,30.37,East,89,0.0,2.0,70,0.00,,,0.00,VWS V14.01,2013-01-29 15:37:00,
2013-01-29 08:42:00,-2.6,-9.7,30.37,East,91,0.0,2.0,71,0.00,,,0.00,VWS V14.01,2013-01-29 15:42:00,
2013-01-29 08:47:00,-2.6,-9.9,30.39,East,87,0.0,3.0,70,0.00,,,0.00,VWS V14.01,2013-01-29 15:47:00,
2013-01-29 08:52:00,-2.6,-9.9,30.39,ESE,109,0.0,3.0,70,0.00,,,0.00,VWS V14.01,2013-01-29 15:52:00,
2013-01-29 08:57:00,-2.6,-9.7,30.39,East,88,0.0,3.0,71,0.00,,,0.00,VWS V14.01,2013-01-29 15:57:00,
2013-01-29 09:00:00,-2.4,-9.5,30.39,East,84,0.0,5.0,71,0.00,,BKN080,0.00,VWS V14.01,2013-01-29 16:00:00,
2013-01-29 09:02:00,-2.4,-9.5,30.39,SE,124,5.0,5.0,71,0.00,,,0.00,VWS V14.01,2013-01-29 16:02:00,
2013-01-29 09:07:00,-2.4,-9.8,30.39,East,89,0.0,5.0,70,0.00,,,0.00,VWS V14.01,2013-01-29 16:07:00,
2013-01-29 09:12:00,-2.4,-10.1,30.39,ESE,119,0.0,5.0,69,0.00,,,0.00,VWS V14.01,2013-01-29 16:12:00,
2013-01-29 09:17:00,-2.4,-10.1,30.39,ESE,109,0.0,5.0,69,0.00,,,0.00,VWS V14.01,2013-01-29 16:17:00,
2013-01-29 09:22:00,-2.6,-10.2,30.39,SE,139,0.0,5.0,69,0.00,,,0.00,VWS V14.01,2013-01-29 16:22:00,
2013-01-29 09:27:00,-2.4,-9.8,30.39,SE,134,0.0,5.0,70,0.00,,,0.00,VWS V14.01,2013-01-29 16:27:00,
2013-01-29 09:30:00,-2.4,-9.8,30.40,ESE,118,0.0,5.0,70,0.00,,,0.00,VWS V14.01,2013-01-29 16:30:00,
2013-01-29 09:32:00,-2.2,-9.6,30.40,East,96,0.0,2.0,70,0.00,,,0.00,VWS V14.01,2013-01-29 16:32:00,
2013-01-29 09:37:00,-2.2,-9.6,30.40,ESE,104,3.0,6.0,70,0.00,,,0.00,VWS V14.01,2013-01-29 16:37:00,
2013-01-29 09:42:00,-2.2,-9.6,30.40,East,88,1.0,6.0,70,0.00,,,0.00,VWS V14.01,2013-01-29 16:42:00,
2013-01-29 09:47:00,-2.2,-9.6,30.41,East,101,0.0,7.0,70,0.00,,,0.00,VWS V14.01,2013-01-29 16:47:00,
2013-01-29 09:52:00,-2.0,-9.1,30.41,East,90,0.0,7.0,71,0.00,,,0.00,VWS V14.01,2013-01-29 16:52:00,
2013-01-29 09:57:00,-2.0,-9.4,30.41,East,97,0.0,7.0,70,0.00,,,0.00,VWS V14.01,2013-01-29 16:57:00,
2013-01-29 10:00:00,-2.0,-9.4,30.42,ESE,117,0.0,7.0,70,0.00,,BKN080,0.00,VWS V14.01,2013-01-29 17:00:00,
2013-01-29 10:02:00,-2.0,-9.7,30.42,ESE,120,0.0,3.0,69,0.00,,,0.00,VWS V14.01,2013-01-29 17:02:00,
2013-01-29 10:07:00,-2.2,-9.6,30.42,ESE,103,0.0,3.0,70,0.00,,,0.00,VWS V14.01,2013-01-29 17:07:00,
2013-01-29 10:12:00,-2.2,-9.9,30.42,ESE,103,0.0,3.0,69,0.00,,,0.00,VWS V14.01,2013-01-29 17:12:00,
2013-01-29 10:17:00,-2.4,-10.1,30.42,ESE,106,0.0,3.0,69,0.00,,,0.00,VWS V14.01,2013-01-29 17:17:00,
2013-01-29 10:22:00,-2.4,-10.1,30.42,East,95,0.0,4.0,69,0.00,,,0.00,VWS V14.01,2013-01-29 17:22:00,
2013-01-29 10:27:00,-2.4,-10.1,30.42,East,98,0.0,4.0,69,0.00,,,0.00,VWS V14.01,2013-01-29 17:27:00,
2013-01-29 10:30:00,-2.4,-10.1,30.42,ESE,110,0.0,4.0,69,0.00,,,0.00,VWS V14.01,2013-01-29 17:30:00,
2013-01-29 10:32:00,-2.4,-10.1,30.42,SE,136,0.0,0.0,69,0.00,,,0.00,VWS V14.01,2013-01-29 17:32:00,
2013-01-29 10:37:00,-2.4,-10.1,30.42,East,97,0.0,1.0,69,0.00,,,0.00,VWS V14.01,2013-01-29 17:37:00,
2013-01-29 10:42:00,-2.4,-10.1,30.42,East,86,0.0,5.0,69,0.00,,,0.00,VWS V14.01,2013-01-29 17:42:00,
2013-01-29 10:47:00,-2.2,-9.9,30.43,East,82,1.0,5.0,69,0.00,,,0.00,VWS V14.01,2013-01-29 17:47:00,
2013-01-29 10:52:00,-2.2,-9.9,30.43,East,89,0.0,5.0,69,0.00,,,0.00,VWS V14.01,2013-01-29 17:52:00,
2013-01-29 10:57:00,-2.0,-9.7,30.43,SE,143,0.0,5.0,69,0.00,,,0.00,VWS V14.01,2013-01-29 17:57:00,
2013-01-29 11:00:00,-2.0,-9.7,30.43,East,93,0.0,5.0,69,0.00,,BKN080,0.00,VWS V14.01,2013-01-29 18:00:00,
2013-01-29 11:02:00,-2.0,-10.0,30.43,East,100,0.0,0.0,68,0.00,,,0.00,VWS V14.01,2013-01-29 18:02:00,
2013-01-29 11:07:00,-1.8,-9.5,30.43,East,96,0.0,2.0,69,0.00,,,0.00,VWS V14.01,2013-01-29 18:07:00,
2013-01-29 11:12:00,-1.8,-9.5,30.43,East,89,0.0,2.0,69,0.00,,,0.00,VWS V14.01,2013-01-29 18:12:00,
2013-01-29 11:17:00,-1.6,-9.3,30.44,East,91,0.0,2.0,69,0.00,,,0.00,VWS V14.01,2013-01-29 18:17:00,
2013-01-29 11:22:00,-1.6,-9.3,30.44,ESE,114,0.0,2.0,69,0.00,,,0.00,VWS V14.01,2013-01-29 18:22:00,
2013-01-29 11:27:00,-1.8,-9.5,30.44,ESE,111,0.0,2.0,69,0.00,,,0.00,VWS V14.01,2013-01-29 18:27:00,
2013-01-29 11:30:00,-1.8,-9.5,30.44,East,90,0.0,2.0,69,0.00,,,0.00,VWS V14.01,2013-01-29 18:30:00,
2013-01-29 11:32:00,-1.6,-9.3,30.44,East,94,0.0,1.0,69,0.00,,,0.00,VWS V14.01,2013-01-29 18:32:00,
2013-01-29 11:37:00,-1.4,-9.1,30.44,East,95,0.0,1.0,69,0.00,,,0.00,VWS V14.01,2013-01-29 18:37:00,
2013-01-29 11:42:00,-1.2,-8.9,30.44,ESE,123,0.0,1.0,69,0.00,,,0.00,VWS V14.01,2013-01-29 18:42:00,
2013-01-29 11:47:00,-1.0,-8.7,30.43,ESE,123,0.0,1.0,69,0.00,,,0.00,VWS V14.01,2013-01-29 18:47:00,
2013-01-29 11:52:00,-0.8,-8.5,30.43,East,88,0.0,1.0,69,0.00,,,0.00,VWS V14.01,2013-01-29 18:52:00,
2013-01-29 11:57:00,-0.8,-8.2,30.43,East,88,0.0,1.0,70,0.00,,,0.00,VWS V14.01,2013-01-29 18:57:00,
2013-01-29 12:00:00,-0.6,-8.0,30.42,East,88,0.0,1.0,70,0.00,,BKN080,0.00,VWS V14.01,2013-01-29 19:00:00,
2013-01-29 12:02:00,-0.4,-7.8,30.42,East,88,0.0,0.0,70,0.00,,,0.00,VWS V14.01,2013-01-29 19:02:00,
2013-01-29 12:07:00,-0.2,-7.4,30.42,East,88,0.0,0.0,70,0.00,,,0.00,VWS V14.01,2013-01-29 19:07:00,
2013-01-29 12:12:00,0.3,-7.2,30.42,East,88,0.0,0.0,70,0.00,,,0.00,VWS V14.01,2013-01-29 19:12:00,
2013-01-29 12:17:00,0.5,-7.0,30.42,East,88,0.0,0.0,70,0.00,,,0.00,VWS V14.01,2013-01-29 19:17:00,
2013-01-29 12:22:00,0.7,-7.1,30.42,East,88,0.0,0.0,69,0.00,,,0.00,VWS V14.01,2013-01-29 19:22:00,
2013-01-29 12:27:00,1.1,-6.7,30.42,East,88,0.0,0.0,69,0.00,,,0.00,VWS V14.01,2013-01-29 19:27:00,
2013-01-29 12:30:00,1.3,-6.5,30.40,East,88,0.0,0.0,69,0.00,,,0.00,VWS V14.01,2013-01-29 19:30:00,
2013-01-29 12:32:00,1.8,-6.3,30.40,East,88,0.0,0.0,68,0.00,,,0.00,VWS V14.01,2013-01-29 19:32:00,
2013-01-29 12:37:00,2.4,-6.0,30.40,East,88,0.0,0.0,67,0.00,,,0.00,VWS V14.01,2013-01-29 19:37:00,
2013-01-29 12:42:00,3.2,-5.6,30.40,East,88,0.0,0.0,66,0.00,,,0.00,VWS V14.01,2013-01-29 19:42:00,
2013-01-29 12:47:00,4.5,-4.3,30.39,East,88,0.0,0.0,66,0.00,,,0.00,VWS V14.01,2013-01-29 19:47:00,
2013-01-29 12:52:00,5.2,-4.0,30.39,East,88,0.0,0.0,65,0.00,,,0.00,VWS V14.01,2013-01-29 19:52:00,
2013-01-29 12:57:00,5.4,-4.4,30.39,East,88,0.0,0.0,63,0.00,,,0.00,VWS V14.01,2013-01-29 19:57:00,
2013-01-29 13:00:00,5.2,-4.6,30.37,East,88,0.0,0.0,63,0.00,,,0.00,VWS V14.01,2013-01-29 20:00:00,
2013-01-29 13:05:00,5.6,-4.9,30.37,NE,53,0.0,0.0,61,0.00,,,0.00,VWS V14.01,2013-01-29 20:05:00,
2013-01-29 13:10:00,5.4,-5.5,30.37,NW,314,0.0,0.0,60,0.00,,,0.00,VWS V14.01,2013-01-29 20:10:00,
2013-01-29 13:15:00,5.4,-4.8,30.37,NW,314,0.0,0.0,62,0.00,,,0.00,VWS V14.01,2013-01-29 20:15:00,
2013-01-29 13:20:00,5.6,-5.3,30.37,NW,314,0.0,0.0,60,0.00,,,0.00,VWS V14.01,2013-01-29 20:20:00,
2013-01-29 13:25:00,4.7,-6.1,30.37,NW,314,0.0,0.0,60,0.00,,,0.00,VWS V14.01,2013-01-29 20:25:00,
2013-01-29 13:30:00,3.7,-6.7,30.35,NW,314,0.0,0.0,61,0.00,,,0.00,VWS V14.01,2013-01-29 20:30:00,
2013-01-29 13:35:00,3.2,-6.5,30.35,NW,314,0.0,0.0,63,0.00,,,0.00,VWS V14.01,2013-01-29 20:35:00,
2013-01-29 13:40:00,3.0,-6.4,30.35,NW,314,0.0,0.0,64,0.00,,,0.00,VWS V14.01,2013-01-29 20:40:00,
2013-01-29 13:45:00,3.0,-6.4,30.36,NW,314,0.0,0.0,64,0.00,,,0.00,VWS V14.01,2013-01-29 20:45:00,
2013-01-29 13:50:00,3.2,-6.5,30.36,NW,314,0.0,0.0,63,0.00,,,0.00,VWS V14.01,2013-01-29 20:50:00,
2013-01-29 13:55:00,3.4,-6.3,30.36,NW,314,0.0,0.0,63,0.00,,,0.00,VWS V14.01,2013-01-29 20:55:00,
2013-01-29 14:00:00,3.5,-6.3,30.34,NW,314,0.0,0.0,63,0.00,,,0.00,VWS V14.01,2013-01-29 21:00:00,
2013-01-29 14:05:00,3.9,-6.5,30.34,NW,314,0.0,0.0,61,0.00,,,0.00,VWS V14.01,2013-01-29 21:05:00,
2013-01-29 14:10:00,4.3,-6.5,30.34,NW,314,0.0,0.0,60,0.00,,,0.00,VWS V14.01,2013-01-29 21:10:00,
2013-01-29 14:15:00,4.5,-6.0,30.34,NW,314,0.0,0.0,61,0.00,,,0.00,VWS V14.01,2013-01-29 21:15:00,
2013-01-29 14:20:00,4.7,-5.8,30.34,NW,314,0.0,0.0,61,0.00,,,0.00,VWS V14.01,2013-01-29 21:20:00,
2013-01-29 14:25:00,4.8,-5.7,30.34,NE,53,0.0,1.0,61,0.00,,,0.00,VWS V14.01,2013-01-29 21:25:00,
2013-01-29 14:30:00,5.2,-5.3,30.33,NE,53,0.0,0.0,61,0.00,,,0.00,VWS V14.01,2013-01-29 21:30:00,
2013-01-29 14:35:00,5.2,-5.7,30.33,NE,53,0.0,0.0,60,0.00,,,0.00,VWS V14.01,2013-01-29 21:35:00,
2013-01-29 14:40:00,5.2,-5.3,30.33,NE,53,0.0,0.0,61,0.00,,,0.00,VWS V14.01,2013-01-29 21:40:00,
2013-01-29 14:45:00,5.2,-5.3,30.33,NE,53,0.0,0.0,61,0.00,,,0.00,VWS V14.01,2013-01-29 21:45:00,
2013-01-29 14:50:00,5.6,-4.3,30.33,NE,53,0.0,0.0,63,0.00,,,0.00,VWS V14.01,2013-01-29 21:50:00,
2013-01-29 14:55:00,5.8,-4.1,30.33,NE,53,0.0,0.0,63,0.00,,,0.00,VWS V14.01,2013-01-29 21:55:00,
2013-01-29 15:00:00,6.0,-3.9,30.31,NE,53,0.0,0.0,63,0.00,,,0.00,VWS V14.01,2013-01-29 22:00:00,
2013-01-29 15:05:00,6.1,-3.8,30.31,NE,53,0.0,0.0,63,0.00,,,0.00,VWS V14.01,2013-01-29 22:05:00,
2013-01-29 15:10:00,6.3,-4.3,30.31,NE,53,0.0,0.0,61,0.00,,,0.00,VWS V14.01,2013-01-29 22:10:00,
2013-01-29 15:15:00,6.5,-3.7,30.34,NE,53,0.0,0.0,62,0.00,,,0.00,VWS V14.01,2013-01-29 22:15:00,
2013-01-29 15:20:00,6.7,-3.5,30.34,NE,53,0.0,0.0,62,0.00,,,0.00,VWS V14.01,2013-01-29 22:20:00,
2013-01-29 15:25:00,6.9,-3.3,30.34,NE,53,0.0,0.0,62,0.00,,,0.00,VWS V14.01,2013-01-29 22:25:00,
2013-01-29 15:30:00,7.0,-3.3,30.34,NE,53,0.0,0.0,62,0.00,,,0.00,VWS V14.01,2013-01-29 22:30:00,
2013-01-29 15:35:00,7.2,-2.7,30.34,NE,53,0.0,0.0,63,0.00,,,0.00,VWS V14.01,2013-01-29 22:35:00,
2013-01-29 15:40:00,7.4,-2.9,30.34,NE,53,0.0,0.0,62,0.00,,,0.00,VWS V14.01,2013-01-29 22:40:00,
2013-01-29 15:45:00,7.6,-1.7,30.33,NE,53,0.0,0.0,65,0.00,,,0.00,VWS V14.01,2013-01-29 22:45:00,
2013-01-29 15:50:00,7.4,-1.9,30.33,NE,53,0.0,0.0,65,0.00,,,0.00,VWS V14.01,2013-01-29 22:50:00,
2013-01-29 15:55:00,7.4,-1.9,30.33,NE,53,0.0,0.0,65,0.00,,,0.00,VWS V14.01,2013-01-29 22:55:00,
2013-01-29 16:00:00,7.2,-2.4,30.32,NE,53,0.0,0.0,64,0.00,,,0.00,VWS V14.01,2013-01-29 23:00:00,
2013-01-29 16:05:00,7.2,-2.7,30.32,NE,53,0.0,0.0,63,0.00,,,0.00,VWS V14.01,2013-01-29 23:05:00,
2013-01-29 16:10:00,7.0,-2.6,30.32,NE,53,0.0,0.0,64,0.00,,,0.00,VWS V14.01,2013-01-29 23:10:00,
2013-01-29 16:15:00,6.9,-2.0,30.32,NE,53,0.0,0.0,66,0.00,,,0.00,VWS V14.01,2013-01-29 23:15:00,
2013-01-29 16:20:00,6.7,-2.2,30.32,NE,53,0.0,0.0,66,0.00,,,0.00,VWS V14.01,2013-01-29 23:20:00,
2013-01-29 16:25:00,6.5,-2.1,30.32,NE,53,0.0,0.0,67,0.00,,,0.00,VWS V14.01,2013-01-29 23:25:00,
2013-01-29 16:30:00,6.3,-2.3,30.33,NE,53,0.0,0.0,67,0.00,,,0.00,VWS V14.01,2013-01-29 23:30:00,
2013-01-29 16:35:00,6.3,-2.3,30.33,NE,53,0.0,0.0,67,0.00,,,0.00,VWS V14.01,2013-01-29 23:35:00,
2013-01-29 16:40:00,6.1,-2.2,30.33,NE,53,0.0,0.0,68,0.00,,,0.00,VWS V14.01,2013-01-29 23:40:00,
2013-01-29 16:45:00,6.1,-2.2,30.33,NE,53,0.0,0.0,68,0.00,,,0.00,VWS V14.01,2013-01-29 23:45:00,
2013-01-29 16:50:00,6.1,-1.9,30.33,NE,53,0.0,0.0,69,0.00,,,0.00,VWS V14.01,2013-01-29 23:50:00,
2013-01-29 16:55:00,6.0,-2.0,30.33,NE,53,0.0,0.0,69,0.00,,,0.00,VWS V14.01,2013-01-29 23:55:00,
2013-01-29 17:00:00,6.0,-1.7,30.33,NE,53,0.0,0.0,70,0.00,,,0.00,VWS V14.01,2013-01-30 00:00:00,
2013-01-29 17:05:00,5.8,-1.9,30.33,NE,53,0.0,0.0,70,0.00,,,0.00,VWS V14.01,2013-01-30 00:05:00,
2013-01-29 17:10:00,5.6,-1.8,30.33,NE,53,0.0,0.0,71,0.00,,,0.00,VWS V14.01,2013-01-30 00:10:00,
2013-01-29 17:15:00,5.4,-1.9,30.35,NE,53,0.0,0.0,71,0.00,,,0.00,VWS V14.01,2013-01-30 00:15:00,
2013-01-29 17:20:00,5.2,-2.4,30.35,NE,53,0.0,0.0,70,0.00,,,0.00,VWS V14.01,2013-01-30 00:20:00,
2013-01-29 17:25:00,5.0,-2.3,30.35,NE,53,0.0,0.0,71,0.00,,,0.00,VWS V14.01,2013-01-30 00:25:00,
2013-01-29 17:30:00,4.7,-2.6,30.35,NE,53,0.0,0.0,71,0.00,,,0.00,VWS V14.01,2013-01-30 00:30:00,
2013-01-29 17:35:00,4.7,-2.6,30.35,NE,53,0.0,0.0,71,0.00,,,0.00,VWS V14.01,2013-01-30 00:35:00,
2013-01-29 17:40:00,4.5,-2.5,30.35,NE,53,0.0,0.0,72,0.00,,,0.00,VWS V14.01,2013-01-30 00:40:00,
2013-01-29 17:45:00,4.5,-2.5,30.33,NE,53,0.0,0.0,72,0.00,,,0.00,VWS V14.01,2013-01-30 00:45:00,
2013-01-29 17:50:00,4.5,-2.5,30.33,NE,53,0.0,0.0,72,0.00,,,0.00,VWS V14.01,2013-01-30 00:50:00,
2013-01-29 17:55:00,4.5,-2.5,30.33,NE,53,0.0,0.0,72,0.00,,,0.00,VWS V14.01,2013-01-30 00:55:00,
2013-01-29 18:00:00,4.5,-2.2,30.33,NE,53,0.0,0.0,73,0.00,,,0.00,VWS V14.01,2013-01-30 01:00:00,
2013-01-29 18:05:00,4.5,-2.2,30.33,NE,53,0.0,0.0,73,0.00,,,0.00,VWS V14.01,2013-01-30 01:05:00,
2013-01-29 18:10:00,4.3,-2.7,30.33,NE,53,0.0,0.0,72,0.00,,,0.00,VWS V14.01,2013-01-30 01:10:00,
2013-01-29 18:15:00,4.3,-2.4,30.36,NE,53,0.0,0.0,73,0.00,,,0.00,VWS V14.01,2013-01-30 01:15:00,
2013-01-29 18:20:00,4.1,-2.6,30.36,NE,53,0.0,0.0,73,0.00,,,0.00,VWS V14.01,2013-01-30 01:20:00,
2013-01-29 18:25:00,4.1,-2.6,30.36,NE,53,0.0,0.0,73,0.00,,,0.00,VWS V14.01,2013-01-30 01:25:00,
2013-01-29 18:30:00,3.9,-2.8,30.35,NE,53,0.0,0.0,73,0.00,,,0.00,VWS V14.01,2013-01-30 01:30:00,
2013-01-29 18:35:00,3.7,-3.0,30.35,NE,53,0.0,0.0,73,0.00,,,0.00,VWS V14.01,2013-01-30 01:35:00,
2013-01-29 18:40:00,3.9,-2.5,30.35,NE,53,0.0,0.0,74,0.00,,,0.00,VWS V14.01,2013-01-30 01:40:00,
2013-01-29 18:45:00,3.9,-2.5,30.34,NE,53,0.0,0.0,74,0.00,,,0.00,VWS V14.01,2013-01-30 01:45:00,
2013-01-29 18:50:00,3.9,-2.5,30.34,NE,53,0.0,0.0,74,0.00,,,0.00,VWS V14.01,2013-01-30 01:50:00,
2013-01-29 18:55:00,4.1,-2.0,30.34,NE,53,0.0,0.0,75,0.00,,,0.00,VWS V14.01,2013-01-30 01:55:00,
2013-01-29 19:00:00,4.5,-1.4,30.32,NE,53,0.0,0.0,76,0.00,,,0.00,VWS V14.01,2013-01-30 02:00:00,
2013-01-29 19:05:00,5.2,-1.0,30.32,NW,316,0.0,0.0,75,0.00,,,0.00,VWS V14.01,2013-01-30 02:05:00,
2013-01-29 19:10:00,6.0,-0.5,30.32,North,358,0.0,0.0,74,0.00,,,0.00,VWS V14.01,2013-01-30 02:10:00,
2013-01-29 19:15:00,6.5,-0.3,30.31,NNW,345,0.0,0.0,73,0.00,,,0.00,VWS V14.01,2013-01-30 02:15:00,
2013-01-29 19:20:00,6.9,-0.5,30.31,NW,304,0.0,0.0,71,0.00,,,0.00,VWS V14.01,2013-01-30 02:20:00,
2013-01-29 19:25:00,7.2,0.1,30.31,NW,314,0.0,0.0,72,0.00,,,0.00,VWS V14.01,2013-01-30 02:25:00,
2013-01-29 19:30:00,7.6,0.2,30.29,North,351,0.0,0.0,71,0.00,,,0.00,VWS V14.01,2013-01-30 02:30:00,
2013-01-29 19:35:00,7.7,0.3,30.29,NW,314,0.0,0.0,71,0.00,,,0.00,VWS V14.01,2013-01-30 02:35:00,
2013-01-29 19:40:00,7.9,0.5,30.29,WNW,297,0.0,0.0,71,0.00,,,0.00,VWS V14.01,2013-01-30 02:40:00,
2013-01-29 19:45:00,8.3,1.1,30.28,NW,325,0.0,0.0,72,0.00,,,0.00,VWS V14.01,2013-01-30 02:45:00,
2013-01-29 19:50:00,8.4,1.2,30.28,East,95,0.0,0.0,72,0.00,,,0.00,VWS V14.01,2013-01-30 02:50:00,
2013-01-29 19:55:00,8.8,1.9,30.28,NW,308,0.0,0.0,73,0.00,,,0.00,VWS V14.01,2013-01-30 02:55:00,
2013-01-29 20:00:00,9.0,2.1,30.26,NNW,334,0.0,0.0,73,0.00,,,0.00,VWS V14.01,2013-01-30 03:00:00,
2013-01-29 20:05:00,9.3,2.7,30.26,North,352,0.0,0.0,74,0.00,,,0.00,VWS V14.01,2013-01-30 03:05:00,
2013-01-29 20:10:00,9.7,3.1,30.26,North,352,0.0,0.0,74,0.00,,,0.00,VWS V14.01,2013-01-30 03:10:00,
2013-01-29 20:15:00,10.0,3.4,30.25,WNW,286,0.0,0.0,74,0.00,,,0.00,VWS V14.01,2013-01-30 03:15:00,
2013-01-29 20:20:00,10.4,3.8,30.25,NW,304,0.0,0.0,74,0.00,,,0.00,VWS V14.01,2013-01-30 03:20:00,
2013-01-29 20:25:00,10.7,3.8,30.25,NW,319,0.0,0.0,73,0.00,,,0.00,VWS V14.01,2013-01-30 03:25:00,
2013-01-29 20:30:00,10.9,4.2,30.23,NW,324,0.0,0.0,74,0.00,,,0.00,VWS V14.01,2013-01-30 03:30:00,
2013-01-29 20:35:00,11.2,4.5,30.23,NW,324,0.0,0.0,74,0.00,,,0.00,VWS V14.01,2013-01-30 03:35:00,
2013-01-29 20:40:00,11.7,5.3,30.23,NNW,339,0.0,0.0,75,0.00,,,0.00,VWS V14.01,2013-01-30 03:40:00,
2013-01-29 20:45:00,12.3,5.6,30.22,NNW,339,0.0,0.0,74,0.00,,,0.00,VWS V14.01,2013-01-30 03:45:00,
2013-01-29 20:50:00,12.8,6.4,30.22,NNW,339,0.0,0.0,75,0.00,,,0.00,VWS V14.01,2013-01-30 03:50:00,
2013-01-29 20:55:00,13.3,6.6,30.22,NNW,339,0.0,0.0,74,0.00,,,0.00,VWS V14.01,2013-01-30 03:55:00,
2013-01-29 21:00:00,13.6,6.9,30.19,NNW,339,0.0,0.0,74,0.00,,,0.00,VWS V14.01,2013-01-30 04:00:00,
2013-01-29 21:05:00,13.8,7.1,30.19,NW,313,0.0,0.0,74,0.00,,,0.00,VWS V14.01,2013-01-30 04:05:00,
2013-01-29 21:10:00,14.1,7.1,30.19,NW,304,0.0,0.0,73,0.00,,,0.00,VWS V14.01,2013-01-30 04:10:00,
2013-01-29 21:15:00,14.8,7.4,30.20,WNW,294,0.0,1.0,72,0.00,,,0.00,VWS V14.01,2013-01-30 04:15:00,
2013-01-29 21:20:00,15.1,7.4,30.20,WNW,291,0.0,1.0,71,0.00,,,0.00,VWS V14.01,2013-01-30 04:20:00,
2013-01-29 21:25:00,15.4,7.7,30.20,WNW,293,0.0,1.0,71,0.00,,,0.00,VWS V14.01,2013-01-30 04:25:00,
2013-01-29 21:30:00,15.9,7.9,30.18,WNW,287,0.0,0.0,70,0.00,,,0.00,VWS V14.01,2013-01-30 04:30:00,
2013-01-29 21:35:00,17.3,8.6,30.18,WNW,300,0.0,0.0,68,0.00,,,0.00,VWS V14.01,2013-01-30 04:35:00,
2013-01-29 21:40:00,18.9,9.4,30.18,WNW,282,0.0,0.0,66,0.00,,,0.00,VWS V14.01,2013-01-30 04:40:00,
2013-01-29 21:45:00,19.5,9.3,30.17,WNW,290,0.0,1.0,64,0.00,,,0.00,VWS V14.01,2013-01-30 04:45:00,
2013-01-29 21:50:00,20.2,10.0,30.17,West,279,0.0,1.0,64,0.00,,,0.00,VWS V14.01,2013-01-30 04:50:00,
2013-01-29 21:55:00,20.6,10.0,30.17,WNW,282,0.0,1.0,63,0.00,,,0.00,VWS V14.01,2013-01-30 04:55:00,
2013-01-29 22:00:00,21.1,10.1,30.15,WNW,287,0.0,0.0,62,0.00,,,0.00,VWS V14.01,2013-01-30 05:00:00,
2013-01-29 22:01:00,21.1,10.1,30.15,WNW,287,0.0,0.0,62,0.00,,,0.00,VWS V14.01,2013-01-30 05:01:00,
2013-01-29 22:03:00,21.1,10.1,30.15,WNW,294,0.0,0.0,62,0.00,,,0.00,VWS V14.01,2013-01-30 05:03:00,
2013-01-29 22:08:00,21.4,10.8,30.15,West,279,0.0,1.0,63,0.00,,,0.00,VWS V14.01,2013-01-30 05:08:00,
2013-01-29 22:13:00,21.8,10.8,30.15,WNW,285,0.0,1.0,62,0.00,,,0.00,VWS V14.01,2013-01-30 05:13:00,
2013-01-29 22:18:00,21.8,10.8,30.14,WNW,282,0.0,1.0,62,0.00,,,0.00,VWS V14.01,2013-01-30 05:18:00,
2013-01-29 22:23:00,21.8,10.8,30.14,WNW,290,0.0,1.0,62,0.00,,,0.00,VWS V14.01,2013-01-30 05:23:00,
2013-01-29 22:28:00,21.8,10.8,30.14,WNW,288,0.0,1.0,62,0.00,,,0.00,VWS V14.01,2013-01-30 05:28:00,
2013-01-29 22:30:00,21.8,10.8,30.13,WNW,288,0.0,1.0,62,0.00,,,0.00,VWS V14.01,2013-01-30 05:30:00,
2013-01-29 22:33:00,21.9,10.9,30.13,WNW,285,0.0,0.0,62,0.00,,,0.00,VWS V14.01,2013-01-30 05:33:00,
2013-01-29 22:38:00,21.9,11.2,30.13,WNW,284,0.0,0.0,63,0.00,,,0.00,VWS V14.01,2013-01-30 05:38:00,
2013-01-29 22:43:00,22.1,11.4,30.13,WNW,288,0.0,0.0,63,0.00,,,0.00,VWS V14.01,2013-01-30 05:43:00,
2013-01-29 22:48:00,22.4,11.4,30.13,WNW,295,0.0,0.0,62,0.00,,,0.00,VWS V14.01,2013-01-30 05:48:00,
2013-01-29 22:53:00,22.5,11.5,30.13,WNW,293,0.0,0.0,62,0.00,,,0.00,VWS V14.01,2013-01-30 05:53:00,
2013-01-29 22:58:00,22.5,11.8,30.13,WNW,302,0.0,0.0,63,0.00,,,0.00,VWS V14.01,2013-01-30 05:58:00,
2013-01-29 23:00:00,22.4,11.7,30.11,WNW,292,0.0,0.0,63,0.00,,,0.00,VWS V14.01,2013-01-30 06:00:00,
2013-01-29 23:03:00,22.2,11.9,30.11,WNW,290,0.0,0.0,64,0.00,,,0.00,VWS V14.01,2013-01-30 06:03:00,
2013-01-29 23:08:00,22.2,11.9,30.11,WNW,292,0.0,0.0,64,0.00,,,0.00,VWS V14.01,2013-01-30 06:08:00,
2013-01-29 23:13:00,22.1,11.8,30.11,WNW,291,0.0,0.0,64,0.00,,,0.00,VWS V14.01,2013-01-30 06:13:00,
2013-01-29 23:18:00,22.4,12.1,30.11,WNW,293,0.0,1.0,64,0.00,,,0.00,VWS V14.01,2013-01-30 06:18:00,
2013-01-29 23:23:00,22.7,12.4,30.11,WNW,288,0.0,1.0,64,0.00,,,0.00,VWS V14.01,2013-01-30 06:23:00,
2013-01-29 23:28:00,23.0,12.6,30.11,NW,309,0.0,1.0,64,0.00,,,0.00,VWS V14.01,2013-01-30 06:28:00,
2013-01-29 23:30:00,23.0,12.6,30.10,WNW,296,0.0,1.0,64,0.00,,,0.00,VWS V14.01,2013-01-30 06:30:00,
2013-01-29 23:33:00,23.0,12.6,30.10,WNW,296,0.0,0.0,64,0.00,,,0.00,VWS V14.01,2013-01-30 06:33:00,
2013-01-29 23:38:00,22.5,12.5,30.10,WNW,296,0.0,0.0,65,0.00,,,0.00,VWS V14.01,2013-01-30 06:38:00,
2013-01-29 23:43:00,22.2,12.2,30.10,WNW,294,0.0,0.0,65,0.00,,,0.00,VWS V14.01,2013-01-30 06:43:00,
2013-01-29 23:48:00,22.7,12.0,30.08,WNW,293,0.0,0.0,63,0.00,,,0.00,VWS V14.01,2013-01-30 06:48:00,
2013-01-29 23:53:00,23.2,12.5,30.08,WNW,295,0.0,0.0,63,0.00,,,0.00,VWS V14.01,2013-01-30 06:53:00,
2013-01-29 23:58:00,23.5,12.8,30.08,WNW,290,0.0,2.0,63,0.00,,,0.00,VWS V14.01,2013-01-30 06:58:00,